[[{"header":{"parameterUnit":"m.s-1","parameterCategory":2,"la1":30.2991,"la2":30.254,"lo1":-89.0895,"lo2":-89.0444,"dy":0.0017,"dx":0.0017,"nx":28,"ny":28,"refTime":"2026-02-25T09:00:00:Z","depth":"0","parameterNumber":2,"parameterNumberName":"U-component_of_CURRENTS"},"data":[0,0,0,0,0,0,0,0,0,0,0,0,0,0,0,0,0,0,0,0,0,0,0,0,0,0,0,0,0,0,0,0,0,0,0,0,0,0,0,0,0,0,0,0,0,0,0,0,0,0,0,0,0,0,0,0,0,0,0.3688,0.3688,0,0.3756,0.3757,0.3757,0.3739,0.3737,0.3735,0.3734,0.3703,0.3703,0.3704,0,0,0,0,0,0,0,0,0,0,0,0,0,0.3573,0.3575,0.3688,0.3688,0.3689,0.3756,0.3757,0.3758,0.3739,0.3737,0.3735,0.3733,0.3703,0.3703,0.3704,0,0,0,0,0,0,0,0,0,0,0,0,0,0.3632,0.3576,0.3688,0.3687,0.3687,0.3755,0.3757,0.3758,0.3739,0.3737,0.3735,0.3732,0.3702,0.3703,0.3704,0.3755,0,0,0.3707,0.3707,0,0,0,0,0,0,0,0,0.3628,0.3636,0.3686,0.3687,0.3687,0.3735,0.3705,0.3752,0.374,0.3721,0.3734,0.3731,0.3705,0.3706,0.3727,0.3754,0.3752,0.3707,0.3707,0.3708,0.3708,0,0,0,0,0,0,0,0.3624,0.3633,0.3716,0.3687,0.3688,0.3694,0.3699,0.3714,0.3724,0.3722,0.3721,0.3727,0.3705,0.3726,0.3726,0.3752,0.3707,0.3708,0.3708,0.3708,0.3818,0.382,0,0,0,0,0,0,0.3614,0.363,0.3714,0.3718,0.365,0.3697,0.3704,0.3723,0.3726,0.3725,0.3729,0.3726,0.3726,0.3725,0.3724,0.3803,0.3708,0.3709,0.3709,0.3815,0.3818,0.3821,0,0,0,0,0,0,0.3612,0.3622,0.3711,0.3673,0.3684,0.3701,0.3724,0.3726,0.3745,0.3732,0.3728,0.3745,0.3724,0.3723,0.3748,0.38,0.3709,0.371,0.3812,0.3816,0.3819,0.3947,0,0,0,0,0,0,0.3609,0.3621,0.3636,0.3673,0.3686,0.3753,0.3726,0.3729,0.3752,0.3749,0.3745,0.374,0.3722,0.3747,0.3749,0.3799,0.371,0.3809,0.3814,0.3818,0.394,0.3954,0.3967,0,0,0,0,0,0.3605,0.3633,0.3637,0.3647,0.3706,0.3754,0.3763,0.3767,0.3755,0.3774,0.3775,0.374,0.3776,0.375,0.3752,0.3804,0.3807,0.3813,0.3818,0.3934,0.3952,0.3967,0,0,0,0,0,0,0.3587,0.3635,0.364,0.368,0.3714,0.375,0.3773,0.3778,0.38,0.3791,0.3773,0.3771,0.3817,0.3792,0.3764,0.3848,0.3786,0.3792,0.3873,0.389,0.3903,0.3948,0.3711,0,0,0,0,0,0.3593,0.3629,0.3669,0.3701,0.3723,0.3753,0.3774,0.3779,0.38,0.3808,0.381,0.3815,0.3846,0.3849,0.3865,0.3909,0.396,0.3942,0.3956,0.3967,0.4005,0.4146,0.4177,0.3838,0.3838,0.3838,0,0,0.3594,0.3625,0.3644,0.37,0.373,0.3786,0.376,0.3798,0.3852,0.3801,0.3869,0.3868,0.387,0.3927,0.3944,0.3906,0.409,0.3974,0.3984,0.4016,0.4155,0.4188,0.4218,0.3842,0.3841,0.3841,0,0,0.3621,0.3647,0.369,0.3729,0.3776,0.3806,0.3819,0.3865,0.3893,0.3949,0.3942,0.3982,0.3998,0.4038,0.4053,0.4154,0.4165,0.4137,0.4238,0.4374,0.4404,0.4431,0.4542,0.4579,0.4135,0.4136,0.4136,0,0.3622,0.3684,0.3708,0.3764,0.3807,0.3821,0.3884,0.393,0.3977,0.4033,0.3975,0.4084,0.4069,0.419,0.4214,0.4192,0.4258,0.4174,0.4397,0.4424,0.445,0.4557,0.4596,0.4142,0.4142,0.4141,0.414,0,0.3686,0.3739,0.3771,0.3854,0.3903,0.3956,0.4021,0.4083,0.4105,0.4152,0.4262,0.4258,0.4328,0.4322,0.4292,0.4467,0.4453,0.4407,0.4362,0.4493,0.4596,0.4634,0.4152,0.415,0.4148,0.4146,0,0,0.3683,0.3796,0.3805,0.3872,0.3956,0.4014,0.4123,0.4245,0.4357,0.4377,0.4523,0.4555,0.4558,0.4578,0.4558,0.465,0.4868,0.4603,0.4607,0.4728,0.5174,0.5047,0.5076,0.4866,0.4873,0.4879,0.5175,0,0.3729,0.3851,0.3892,0.4021,0.4103,0.4167,0.4283,0.4393,0.4476,0.4619,0.4652,0.4761,0.4656,0.4699,0.4782,0.4854,0.4973,0.4792,0.5018,0.5025,0.4909,0.5117,0.4818,0.5047,0.5211,0.5218,0.5222,0,0.379,0.3866,0.3994,0.4154,0.4196,0.427,0.4482,0.4585,0.4779,0.4846,0.4954,0.4985,0.5128,0.5009,0.5231,0.5121,0.5176,0.5211,0.5223,0.5093,0.497,0.4941,0.5109,0.4917,0.528,0.5275,0.5271,0,0.3819,0.395,0.406,0.4108,0.4277,0.4362,0.446,0.4655,0.4795,0.5006,0.5126,0.5265,0.5366,0.5457,0.5486,0.5402,0.5724,0.5619,0.5572,0.5562,0.5347,0.5305,0.5366,0.5831,0.583,0.5829,0.5828,0,0.3888,0.3985,0.4078,0.4149,0.4315,0.4402,0.461,0.4745,0.495,0.5154,0.5237,0.541,0.5489,0.5642,0.5635,0.5727,0.5858,0.5663,0.5661,0.5377,0.5337,0.5184,0.5106,0.584,0.5838,0.5836,0.5834,0,0.3978,0.4008,0.4159,0.4299,0.4344,0.4476,0.4687,0.4867,0.5025,0.5298,0.5376,0.5599,0.579,0.5847,0.6028,0.5934,0.5837,0.6012,0.5653,0.5602,0.5306,0.5245,0.523,0.5086,0.6033,0.6032,0.6031,0,0.4068,0.4143,0.4277,0.4367,0.444,0.4608,0.4758,0.4907,0.5087,0.5407,0.5559,0.5804,0.5951,0.6137,0.6047,0.6069,0.5865,0.5795,0.5568,0.5318,0.5253,0.5071,0.4937,0.5348,0.5342,0.5336,0.5332,0,0.4268,0.4287,0.441,0.4556,0.4683,0.4815,0.5001,0.5104,0.5315,0.5483,0.5697,0.5815,0.6001,0.5865,0.5884,0.5837,0.5466,0.5688,0.5544,0.4845,0.4544,0.4389,0.5117,0.5286,0.5291,0.5294,0.5297,0.5299,0.4431,0.4541,0.4646,0.478,0.4899,0.4959,0.4995,0.5149,0.5281,0.5401,0.5648,0.5659,0.5634,0.5591,0.5541,0.5163,0.522,0.4898,0.4894,0.477,0.4472,0.5093,0.5166,0.517,0.5173,0.5176,0.5178,0,0.4614,0.4697,0.4868,0.4938,0.5,0.5015,0.5127,0.506,0.5063,0.5213,0.5282,0.5128,0.4992,0.4904,0.459,0.436,0.4177,0.4202,0.3867,0.3813,0.4468,0.4268,0.4006,0.4007,0.4007,0.4007,0.4007,0.4007,0.4711,0.4859,0.4897,0.4955,0.4976,0.4899,0.486,0.4763,0.4764,0.4551,0.4392,0.4407,0.435,0.4172,0.3838,0.3738,0.3459,0.3273,0.3355,0.3766,0.3828,0.3887,0.3679,0.3299,0.3298,0.2473,0.2466,0.2462]},{"header":{"parameterUnit":"m.s-1","parameterCategory":2,"la1":30.2991,"la2":30.254,"lo1":-89.0895,"lo2":-89.0444,"dy":0.0017,"dx":0.0017,"nx":28,"ny":28,"refTime":"2026-02-25T09:00:00:Z","depth":"0","parameterNumber":3,"parameterNumberName":"V-component_of_CURRENTS"},"data":[0,0,0,0,0,0,0,0,0,0,0,0,0,0,0,0,0,0,0,0,0,0,0,0,0,0,0,0,0,0,0,0,0,0,0,0,0,0,0,0,0,0,0,0,0,0,0,0,0,0,0,0,0,0,0,0,0,0,0.0085,0.0084,0,0.0037,0.0036,0.0036,-0.0002,-0.0002,-0.0003,-0.0003,-0.0066,-0.0067,-0.0068,0,0,0,0,0,0,0,0,0,0,0,0,0,0.0082,0.0083,0.0085,0.0084,0.0084,0.0037,0.0036,0.0036,-0.0002,-0.0002,-0.0003,-0.0003,-0.0065,-0.0067,-0.0068,0,0,0,0,0,0,0,0,0,0,0,0,0,0.0063,0.0083,0.0085,0.006,0.0057,0.0037,0.0036,0.0035,-0.0002,-0.0002,-0.0003,-0.0003,-0.0065,-0.0067,-0.0069,-0.0073,0,0,-0.0075,-0.0076,0,0,0,0,0,0,0,0,0.0064,0.0063,0.0064,0.0062,0.0059,0.0024,0.0012,-0.0001,-0.0002,0.002,-0.0003,-0.0003,-0.0036,-0.0041,-0.005,-0.0075,-0.0078,-0.0075,-0.0076,-0.0077,-0.0078,0,0,0,0,0,0,0,0.0066,0.0065,0.0065,0.0064,0.006,0.003,0.0028,0.0009,-0.0006,0.0018,0.0015,0.0011,-0.0038,-0.0047,-0.0051,-0.0079,-0.0075,-0.0077,-0.0078,-0.0079,-0.0095,-0.0095,0,0,0,0,0,0,0.0077,0.0066,0.0067,0.0064,0.0061,0.0031,0.0028,0.0035,-0.0006,-0.0012,0.0012,0.001,-0.0044,-0.0049,-0.0054,-0.0023,-0.0077,-0.0079,-0.008,-0.0096,-0.0095,-0.0094,0,0,0,0,0,0,0.0078,0.0078,0.0068,0.0064,0.006,0.0032,0.004,0.0034,0.0026,-0.001,-0.0017,0.001,-0.0044,-0.0051,-0.0063,-0.0027,-0.008,-0.0082,-0.0097,-0.0096,-0.0095,0.0014,0,0,0,0,0,0,0.0078,0.0079,0.0085,0.0065,0.0061,0.0072,0.004,0.0033,0.0025,0.0022,-0.0013,-0.002,-0.0045,-0.006,-0.0065,-0.0031,-0.0084,-0.0098,-0.0097,-0.0095,0.0009,0.0019,0.0027,0,0,0,0,0,0.0078,0.0098,0.0086,0.0086,0.0072,0.0073,0.0069,0.0045,0.0026,0.0034,0.0004,-0.0019,-0.0054,-0.0061,-0.0068,-0.0033,-0.0099,-0.0097,-0.0095,0.0006,0.0017,0.0027,0,0,0,0,0,0,0.0104,0.0096,0.0082,0.0099,0.0091,0.0067,0.007,0.0051,0.0033,0.0026,-0.0012,-0.002,-0.0014,-0.0045,-0.0052,-0.0035,-0.0079,-0.0078,0.0,0.0011,0.0019,0.0058,-0.0085,0,0,0,0,0,0.0112,0.0121,0.0109,0.0121,0.0121,0.0094,0.0089,0.0074,0.0055,0.0047,0.0022,-0.0004,-0.0012,-0.0019,-0.0036,-0.003,-0.0024,-0.0013,-0.0004,0.0004,0.0029,0.0076,0.0092,-0.0088,-0.0088,-0.0088,0,0,0.0123,0.012,0.0123,0.0126,0.0115,0.0138,0.0091,0.0092,0.0113,0.0043,0.006,0.0025,-0.0005,0.0007,0.0007,-0.0014,0.0055,0.0006,0.0013,0.0035,0.008,0.0098,0.0114,-0.0087,-0.0087,-0.0087,0,0,0.0164,0.0151,0.0179,0.018,0.0174,0.0164,0.0169,0.0151,0.0147,0.0148,0.0113,0.0105,0.0075,0.0077,0.0069,0.0115,0.01,0.0099,0.0178,0.0223,0.0239,0.0254,0.0281,0.0297,0.0104,0.0104,0.0104,0,0.0178,0.0216,0.0186,0.0219,0.0232,0.0185,0.0228,0.022,0.02,0.0213,0.0167,0.0155,0.0119,0.0163,0.0172,0.0141,0.0154,0.0144,0.0239,0.0253,0.0266,0.029,0.0307,0.011,0.0109,0.0109,0.0108,0,0.0248,0.0275,0.0294,0.0323,0.0331,0.0356,0.0347,0.0356,0.0332,0.0323,0.0343,0.0291,0.0291,0.0273,0.0232,0.0307,0.0282,0.0248,0.0222,0.0292,0.0311,0.0327,0.0118,0.0116,0.0114,0.0113,0,0,0.0295,0.0338,0.0344,0.0379,0.0391,0.0408,0.0451,0.0485,0.0527,0.0486,0.0547,0.0506,0.047,0.046,0.0412,0.0435,0.0519,0.0383,0.0382,0.0427,0.0617,0.0569,0.058,0.0506,0.0509,0.0512,0.0593,0,0.0364,0.045,0.0451,0.0531,0.0578,0.0561,0.0611,0.0627,0.0625,0.0667,0.0624,0.0648,0.0545,0.055,0.0559,0.0541,0.0565,0.05,0.0527,0.0528,0.0493,0.0599,0.0561,0.0628,0.0607,0.061,0.0612,0,0.0446,0.0491,0.0585,0.0652,0.0671,0.0707,0.0779,0.0818,0.0856,0.0857,0.0866,0.0829,0.0859,0.0753,0.0774,0.0739,0.0692,0.066,0.0662,0.0596,0.051,0.0553,0.0656,0.0425,0.0634,0.0633,0.0631,0,0.051,0.059,0.0669,0.0689,0.0753,0.0794,0.083,0.0876,0.0934,0.099,0.1044,0.1036,0.1075,0.1016,0.0935,0.087,0.0961,0.0861,0.0774,0.0769,0.0733,0.0719,0.0634,0.0889,0.0889,0.0888,0.0888,0,0.0598,0.0658,0.07,0.0743,0.0837,0.0858,0.0961,0.0998,0.1077,0.1194,0.1148,0.1255,0.1149,0.1169,0.104,0.0982,0.105,0.0828,0.0807,0.0765,0.0754,0.0544,0.0408,0.0891,0.0891,0.089,0.089,0,0.0663,0.0693,0.078,0.0847,0.0871,0.0937,0.1038,0.1125,0.1191,0.1352,0.1388,0.1464,0.152,0.1396,0.1347,0.1155,0.0946,0.1024,0.0972,0.0942,0.0583,0.0455,0.0392,0.0299,0.0931,0.093,0.093,0,0.0711,0.0762,0.0842,0.0898,0.0929,0.1019,0.1099,0.1171,0.1282,0.1502,0.161,0.1718,0.1852,0.1745,0.1461,0.1259,0.102,0.1006,0.0855,0.0597,0.044,0.0354,0.0274,0.0848,0.0847,0.0847,0.0846,0,0.0794,0.081,0.0874,0.0983,0.1065,0.117,0.1294,0.1393,0.154,0.1714,0.1984,0.2123,0.2058,0.1891,0.1571,0.1363,0.0816,0.0979,0.0748,0.0412,0.0284,0.0173,0.0739,0.0839,0.084,0.084,0.084,0.0841,0.0842,0.09,0.0978,0.1078,0.1181,0.1328,0.1435,0.1616,0.1837,0.2166,0.2269,0.2566,0.2203,0.1804,0.1489,0.0786,0.0816,0.0525,0.0408,0.0359,0.0216,0.0755,0.0797,0.0797,0.0798,0.0798,0.0798,0,0.0907,0.0973,0.1078,0.1205,0.1325,0.1365,0.1579,0.1728,0.2026,0.2416,0.2692,0.2703,0.2222,0.1675,0.0748,0.0284,0.0108,0.0016,-0.0132,-0.0174,0.0343,0.0279,0.0169,0.0169,0.0169,0.0169,0.017,0.017,0.0948,0.1049,0.11,0.1294,0.1394,0.1577,0.1701,0.1973,0.2274,0.2754,0.3014,0.3186,0.2649,0.1026,-0.004,-0.027,-0.0596,-0.0654,-0.0779,-0.0486,-0.0448,-0.0413,-0.0505,-0.0778,-0.0779,-0.1255,-0.1261,-0.1265]}],[{"header":{"parameterUnit":"m.s-1","parameterCategory":2,"la1":30.2991,"la2":30.254,"lo1":-89.0895,"lo2":-89.0444,"dy":0.0017,"dx":0.0017,"nx":28,"ny":28,"refTime":"2026-02-25T09:00:00:Z","depth":"2","parameterNumber":2,"parameterNumberName":"U-component_of_CURRENTS"},"data":[0,0,0,0,0,0,0,0,0,0,0,0,0,0,0,0,0,0,0,0,0,0,0,0,0,0,0,0,0,0,0,0,0,0,0,0,0,0,0,0,0,0,0,0,0,0,0,0,0,0,0,0,0,0,0,0,0,0,0.2645,0.2646,0,0.2707,0.2708,0.2708,0.2718,0.2717,0.2717,0.2717,0.274,0.2741,0.2742,0,0,0,0,0,0,0,0,0,0,0,0,0,0.2574,0.2575,0.2645,0.2646,0.2647,0.2707,0.2708,0.2708,0.2718,0.2717,0.2717,0.2716,0.274,0.2741,0.2742,0,0,0,0,0,0,0,0,0,0,0,0,0,0.2616,0.2575,0.2645,0.266,0.2662,0.2707,0.2708,0.2709,0.2718,0.2717,0.2717,0.2716,0.2739,0.2741,0.2742,0.2762,0,0,0.2747,0.2747,0,0,0,0,0,0,0,0,0.2613,0.2618,0.2657,0.2659,0.2662,0.2706,0.2692,0.2725,0.2718,0.2695,0.2717,0.2716,0.2727,0.2729,0.274,0.2764,0.2765,0.2747,0.2748,0.2748,0.2749,0,0,0,0,0,0,0,0.261,0.2615,0.2667,0.2658,0.2661,0.2678,0.2683,0.2698,0.2711,0.2697,0.2698,0.2708,0.2728,0.2739,0.274,0.2765,0.2747,0.2748,0.2749,0.275,0.2847,0.2848,0,0,0,0,0,0,0.2605,0.2613,0.2665,0.2669,0.2638,0.268,0.2685,0.2691,0.2711,0.2715,0.2709,0.2709,0.2736,0.2739,0.2741,0.2813,0.2748,0.275,0.2751,0.2845,0.2847,0.2849,0,0,0,0,0,0,0.2604,0.2609,0.2663,0.2644,0.2653,0.2682,0.2688,0.2692,0.2716,0.2722,0.2724,0.2729,0.2736,0.2739,0.2755,0.2812,0.275,0.2752,0.2843,0.2846,0.2848,0.2926,0,0,0,0,0,0,0.2601,0.2608,0.2617,0.2644,0.2654,0.2701,0.2689,0.2694,0.2723,0.2724,0.274,0.2741,0.2736,0.2753,0.2757,0.2813,0.2753,0.2841,0.2844,0.2847,0.2922,0.2931,0.2939,0,0,0,0,0,0.2598,0.2609,0.2616,0.2623,0.2662,0.2702,0.2709,0.2726,0.2725,0.2743,0.2742,0.2741,0.2777,0.2755,0.2759,0.2817,0.2839,0.2843,0.2847,0.2917,0.2929,0.2939,0,0,0,0,0,0,0.2581,0.2612,0.2621,0.264,0.2675,0.2705,0.2723,0.2737,0.2754,0.276,0.275,0.2752,0.2801,0.2788,0.2764,0.2854,0.2814,0.2819,0.2866,0.2877,0.2886,0.2903,0.2754,0,0,0,0,0,0.2583,0.2601,0.2635,0.2655,0.267,0.2701,0.2721,0.2744,0.2761,0.277,0.2778,0.2791,0.2821,0.2828,0.2852,0.2884,0.2914,0.2928,0.2937,0.2945,0.2962,0.305,0.307,0.2862,0.2862,0.2862,0,0,0.2587,0.2604,0.2617,0.2654,0.2678,0.2714,0.2711,0.2758,0.2793,0.277,0.281,0.283,0.2839,0.2887,0.2908,0.2879,0.302,0.2949,0.2956,0.2969,0.3057,0.3077,0.3095,0.2864,0.2864,0.2863,0,0,0.2601,0.2614,0.2636,0.267,0.272,0.274,0.2757,0.2802,0.2824,0.2865,0.2871,0.2914,0.2937,0.2966,0.2978,0.3048,0.3074,0.3064,0.3114,0.3201,0.3219,0.3235,0.3304,0.3326,0.3056,0.3057,0.3057,0,0.2607,0.2633,0.2652,0.2686,0.2718,0.2751,0.2792,0.2823,0.2871,0.291,0.2886,0.2977,0.298,0.3058,0.308,0.3074,0.312,0.3071,0.3215,0.3231,0.3247,0.3313,0.3336,0.3061,0.306,0.306,0.306,0,0.2638,0.2669,0.2686,0.2734,0.2772,0.2818,0.2864,0.2906,0.2933,0.2982,0.3072,0.3078,0.3136,0.3149,0.3131,0.3252,0.325,0.3227,0.319,0.3273,0.3337,0.336,0.3067,0.3065,0.3064,0.3063,0,0,0.2637,0.2695,0.2707,0.2735,0.2807,0.2839,0.2903,0.2982,0.3029,0.3098,0.3179,0.3235,0.327,0.3287,0.3289,0.3347,0.3489,0.3335,0.3337,0.3408,0.3687,0.357,0.3583,0.35,0.3504,0.3508,0.3689,0,0.2661,0.2721,0.2749,0.2816,0.2852,0.2904,0.2952,0.3038,0.3092,0.3177,0.3254,0.3333,0.3313,0.3349,0.3415,0.348,0.3553,0.3442,0.3592,0.3596,0.3486,0.3607,0.3286,0.3411,0.3712,0.3715,0.3718,0,0.2683,0.2726,0.2786,0.2854,0.2873,0.2918,0.3007,0.3057,0.3192,0.3249,0.3364,0.3425,0.3559,0.3506,0.3687,0.3624,0.3673,0.3704,0.3712,0.3592,0.3522,0.3376,0.3441,0.3756,0.3753,0.375,0.3748,0,0.2669,0.2748,0.279,0.282,0.2903,0.2944,0.2991,0.3099,0.3158,0.3317,0.3382,0.3551,0.3631,0.3746,0.3828,0.3783,0.4007,0.3949,0.3893,0.3884,0.3634,0.3595,0.4085,0.4085,0.4084,0.4084,0.4083,0,0.2671,0.2713,0.2788,0.2819,0.2881,0.2942,0.3014,0.3084,0.3209,0.3299,0.3423,0.3515,0.3696,0.3834,0.39,0.3982,0.4083,0.394,0.3939,0.3649,0.3612,0.3914,0.3892,0.409,0.4089,0.4088,0.4086,0,0.2633,0.2689,0.2737,0.283,0.2872,0.291,0.3028,0.3061,0.3186,0.3304,0.3373,0.356,0.3743,0.389,0.4085,0.4048,0.4149,0.4144,0.3786,0.3738,0.395,0.393,0.4115,0.4113,0.4111,0.4109,0.4108,0,0.2612,0.2636,0.273,0.2748,0.2789,0.2869,0.2909,0.3054,0.3095,0.3311,0.3355,0.3589,0.3693,0.3926,0.3974,0.4093,0.4176,0.381,0.3648,0.3981,0.3962,0.3944,0.3927,0.3358,0.3351,0.3345,0.334,0,0.256,0.2587,0.2611,0.2665,0.271,0.2773,0.2852,0.2906,0.306,0.3164,0.3306,0.342,0.3617,0.3596,0.3729,0.374,0.3766,0.3687,0.4177,0.3381,0.3276,0.3254,0.3261,0.3286,0.3292,0.3296,0.3299,0.3301,0.2501,0.2485,0.2509,0.2561,0.2609,0.2659,0.2659,0.2765,0.2867,0.2964,0.3142,0.3194,0.3273,0.3319,0.3274,0.3256,0.3508,0.334,0.3356,0.3379,0.3239,0.3135,0.3093,0.3097,0.31,0.3103,0.3106,0,0.2371,0.2379,0.241,0.2447,0.2419,0.2552,0.2588,0.2544,0.262,0.276,0.285,0.2666,0.2676,0.2795,0.2671,0.2665,0.2601,0.2566,0.2459,0.2516,0.2566,0.238,0.2009,0.2006,0.2002,0.1999,0,0,0.2309,0.2259,0.2299,0.2257,0.2305,0.2286,0.2291,0.2252,0.2284,0.2298,0.2331,0.2534,0.2685,0.2309,0.2271,0.2119,0.2286,0.2029,0.2916,0.2847,0.2892,0.3033,0.2815,0,0,0,0,0]},{"header":{"parameterUnit":"m.s-1","parameterCategory":2,"la1":30.2991,"la2":30.254,"lo1":-89.0895,"lo2":-89.0444,"dy":0.0017,"dx":0.0017,"nx":28,"ny":28,"refTime":"2026-02-25T09:00:00:Z","depth":"2","parameterNumber":3,"parameterNumberName":"V-component_of_CURRENTS"},"data":[0,0,0,0,0,0,0,0,0,0,0,0,0,0,0,0,0,0,0,0,0,0,0,0,0,0,0,0,0,0,0,0,0,0,0,0,0,0,0,0,0,0,0,0,0,0,0,0,0,0,0,0,0,0,0,0,0,0,0.0049,0.0048,0,0.0016,0.0016,0.0015,-0.0019,-0.002,-0.002,-0.0021,-0.007,-0.0071,-0.0072,0,0,0,0,0,0,0,0,0,0,0,0,0,0.0029,0.0029,0.0049,0.0048,0.0048,0.0016,0.0016,0.0015,-0.0019,-0.002,-0.002,-0.0021,-0.007,-0.0071,-0.0072,0,0,0,0,0,0,0,0,0,0,0,0,0,0.002,0.003,0.0049,0.0028,0.0026,0.0016,0.0016,0.0015,-0.0019,-0.002,-0.002,-0.0021,-0.0069,-0.007,-0.0072,-0.0068,0,0,-0.0076,-0.0077,0,0,0,0,0,0,0,0,0.0021,0.0021,0.0031,0.0029,0.0027,0.0003,-0.0009,-0.0013,-0.0019,-0.0003,-0.0021,-0.0021,-0.0046,-0.0049,-0.0055,-0.007,-0.0073,-0.0076,-0.0077,-0.0078,-0.0078,0,0,0,0,0,0,0,0.0021,0.0022,0.0035,0.0031,0.0028,0.0002,0.0,-0.0011,-0.0022,-0.0005,-0.0007,-0.0009,-0.0048,-0.0054,-0.0057,-0.0073,-0.0076,-0.0077,-0.0078,-0.0079,-0.0096,-0.0095,0,0,0,0,0,0,0.0031,0.0023,0.0036,0.0034,0.0023,0.0003,0.0001,0.001,-0.0021,-0.0026,-0.0008,-0.001,-0.0051,-0.0055,-0.0058,-0.0048,-0.0078,-0.0079,-0.008,-0.0096,-0.0096,-0.0095,0,0,0,0,0,0,0.0031,0.0033,0.0037,0.0027,0.0026,0.0005,0.0014,0.001,0.0003,-0.0024,-0.003,-0.0011,-0.0052,-0.0057,-0.0063,-0.0051,-0.008,-0.0081,-0.0097,-0.0096,-0.0096,-0.0033,0,0,0,0,0,0,0.0031,0.0033,0.004,0.0029,0.0027,0.0043,0.0015,0.001,0.0003,0.0,-0.0028,-0.0033,-0.0053,-0.0061,-0.0064,-0.0053,-0.0082,-0.0097,-0.0096,-0.0096,-0.0035,-0.003,-0.0026,0,0,0,0,0,0.003,0.0053,0.0041,0.0042,0.0039,0.0044,0.0042,0.0022,0.0004,0.0011,-0.0012,-0.0032,-0.0059,-0.0061,-0.0066,-0.0055,-0.0097,-0.0097,-0.0096,-0.0037,-0.0031,-0.0026,0,0,0,0,0,0,0.0051,0.0051,0.0038,0.0059,0.0054,0.0039,0.0043,0.0026,0.0014,0.0007,-0.0024,-0.0029,-0.0033,-0.0052,-0.0054,-0.0059,-0.0083,-0.0083,-0.0037,-0.0032,-0.0027,-0.0011,-0.0083,0,0,0,0,0,0.0058,0.0071,0.0064,0.0079,0.008,0.0059,0.0056,0.0044,0.0031,0.0024,0.0005,-0.0018,-0.0033,-0.0038,-0.0055,-0.0052,-0.007,-0.005,-0.0045,-0.0041,-0.0032,-0.0047,-0.0043,-0.0092,-0.0092,-0.0092,0,0,0.0068,0.007,0.0076,0.0083,0.0075,0.0092,0.0056,0.0059,0.0069,0.0022,0.0028,-0.0002,-0.003,-0.0029,-0.0033,-0.0042,-0.0036,-0.004,-0.0036,-0.0029,-0.0046,-0.0041,-0.0036,-0.0092,-0.0092,-0.0092,0,0,0.0103,0.0099,0.0123,0.0126,0.0123,0.0114,0.0118,0.0105,0.0095,0.0095,0.0061,0.0042,0.0022,0.0007,-0.0005,0.0017,-0.0013,0.0008,0.0051,0.0035,0.004,0.0043,0.0029,0.003,0.0014,0.0014,0.0014,0,0.0113,0.0148,0.013,0.0157,0.0168,0.0129,0.0162,0.0149,0.0134,0.0134,0.0106,0.0069,0.0041,0.0042,0.0046,0.003,0.0016,0.0033,0.0043,0.0046,0.0049,0.0033,0.0034,0.0017,0.0017,0.0017,0.0016,0,0.0171,0.0196,0.0213,0.0235,0.0242,0.0263,0.0248,0.0248,0.0223,0.0206,0.0192,0.0144,0.0127,0.0108,0.0084,0.0089,0.0071,0.0049,0.0032,0.0058,0.0039,0.0039,0.0022,0.0021,0.002,0.0019,0,0,0.0206,0.0247,0.0252,0.0283,0.0288,0.0307,0.032,0.0329,0.035,0.0299,0.0316,0.0263,0.0225,0.0209,0.0167,0.0145,0.0144,0.011,0.0108,0.0103,0.0114,0.007,0.0065,0.0125,0.0125,0.0125,0.0095,0,0.0258,0.0332,0.0333,0.04,0.0439,0.0418,0.0441,0.0437,0.042,0.0424,0.035,0.0344,0.0267,0.0261,0.0225,0.0171,0.0147,0.0155,0.0084,0.0082,0.0045,0.0065,0.0078,0.0049,0.0094,0.0094,0.0094,0,0.032,0.0364,0.044,0.05,0.0515,0.0542,0.0582,0.0602,0.0583,0.057,0.053,0.0467,0.0422,0.0352,0.0262,0.0272,0.0201,0.0145,0.0142,0.0081,0.0038,0.0029,0.0047,0.0094,0.0094,0.0094,0.0094,0,0.0369,0.0442,0.0509,0.0529,0.0582,0.0611,0.0638,0.0644,0.0687,0.0666,0.0686,0.0593,0.0577,0.046,0.0324,0.0301,0.0225,0.018,0.007,0.0066,0.0053,0.0047,0.0118,0.0119,0.0119,0.0119,0.0119,0,0.0432,0.0487,0.054,0.058,0.0672,0.0679,0.0766,0.0779,0.081,0.089,0.077,0.0801,0.0606,0.0524,0.0374,0.0228,0.0263,0.0084,0.0057,0.0074,0.007,0.0087,0.0084,0.0118,0.0118,0.0118,0.0118,0,0.0477,0.0507,0.0598,0.0668,0.0699,0.0767,0.0869,0.0943,0.0951,0.1053,0.1052,0.0975,0.0873,0.0664,0.0492,0.0322,0.0166,0.0106,0.0133,0.0109,0.0002,0.0003,-0.0024,-0.0025,-0.0027,-0.0028,-0.0029,0,0.0511,0.0559,0.0668,0.0741,0.0779,0.0879,0.0966,0.1013,0.1105,0.1176,0.124,0.1153,0.1111,0.0809,0.0499,0.0218,0.019,0.0039,-0.0019,0.0012,-0.0011,-0.0008,-0.0006,-0.0007,-0.0008,-0.0009,-0.0009,0,0.058,0.0609,0.0681,0.0833,0.094,0.1076,0.1198,0.1284,0.1371,0.1452,0.1544,0.1504,0.1201,0.0897,0.0478,0.0281,0.0071,0.0015,0.0062,0.0018,0.0022,0.0001,0.0004,-0.0015,-0.0015,-0.0014,-0.0014,-0.0014,0.0631,0.0698,0.0798,0.0933,0.1078,0.1262,0.1387,0.1521,0.1679,0.1796,0.1755,0.1699,0.1321,0.0771,0.0421,0.0043,0.0053,-0.0091,-0.0086,-0.0082,-0.0083,-0.0082,-0.0139,-0.0139,-0.0139,-0.0139,-0.0139,0,0.073,0.0787,0.0907,0.1089,0.1272,0.1321,0.1546,0.166,0.1861,0.1932,0.1979,0.1616,0.1248,0.0837,0.0267,-0.0084,-0.0107,-0.0184,-0.0134,-0.0126,-0.012,-0.0122,-0.019,-0.019,-0.0191,-0.0192,0,0,0.0784,0.0905,0.0947,0.1216,0.1357,0.1618,0.1753,0.1887,0.198,0.2032,0.1989,0.1855,0.1351,0.0935,0.0463,0.0148,0.0095,0.0081,0.0153,0.0275,0.0286,-0.0042,-0.0034,0,0,0,0,0]}],[{"header":{"parameterUnit":"m.s-1","parameterCategory":2,"la1":30.2991,"la2":30.254,"lo1":-89.0895,"lo2":-89.0444,"dy":0.0017,"dx":0.0017,"nx":28,"ny":28,"refTime":"2026-02-25T09:00:00:Z","depth":"4","parameterNumber":2,"parameterNumberName":"U-component_of_CURRENTS"},"data":[0,0,0,0,0,0,0,0,0,0,0,0,0,0,0,0,0,0,0,0,0,0,0,0,0,0,0,0,0,0,0,0,0,0,0,0,0,0,0,0,0,0,0,0,0,0,0,0,0,0,0,0,0,0,0,0,0,0,0.1583,0.1583,0,0.164,0.164,0.1641,0.1703,0.1704,0.1705,0.1706,0.1775,0.1776,0.1776,0,0,0,0,0,0,0,0,0,0,0,0,0,0.1515,0.1516,0.1583,0.1583,0.1584,0.164,0.164,0.1641,0.1703,0.1704,0.1705,0.1706,0.1774,0.1775,0.1777,0,0,0,0,0,0,0,0,0,0,0,0,0,0.1554,0.1516,0.1582,0.1623,0.1627,0.164,0.164,0.1641,0.1702,0.1704,0.1705,0.1707,0.1774,0.1775,0.1777,0.1755,0,0,0.1781,0.1781,0,0,0,0,0,0,0,0,0.1552,0.1556,0.1616,0.162,0.1625,0.1667,0.1642,0.168,0.1702,0.1672,0.1706,0.1708,0.1739,0.1744,0.1749,0.1758,0.1761,0.1781,0.1782,0.1782,0.1783,0,0,0,0,0,0,0,0.1549,0.1554,0.1604,0.1617,0.1622,0.1634,0.1641,0.1649,0.1696,0.1675,0.168,0.1688,0.1742,0.1748,0.1751,0.1762,0.1781,0.1782,0.1783,0.1784,0.1892,0.1894,0,0,0,0,0,0,0.1543,0.1552,0.1602,0.1606,0.1593,0.1634,0.1642,0.1651,0.1696,0.1705,0.1687,0.1691,0.1745,0.175,0.1754,0.1846,0.1782,0.1784,0.1784,0.189,0.1893,0.1895,0,0,0,0,0,0,0.1542,0.1547,0.16,0.1581,0.1589,0.1634,0.1643,0.1651,0.1694,0.1705,0.1714,0.1725,0.1746,0.1752,0.1803,0.1845,0.1784,0.1786,0.1888,0.1891,0.1894,0.1957,0,0,0,0,0,0,0.154,0.1546,0.1566,0.1581,0.159,0.1628,0.1642,0.1651,0.1694,0.1701,0.174,0.1746,0.1748,0.1801,0.1805,0.1846,0.1787,0.1885,0.1889,0.1893,0.1952,0.1962,0.197,0,0,0,0,0,0.1537,0.1552,0.1567,0.1574,0.161,0.1629,0.1635,0.1671,0.1695,0.1715,0.1754,0.1746,0.1829,0.1804,0.1807,0.185,0.1883,0.1888,0.1892,0.1948,0.196,0.197,0,0,0,0,0,0,0.1534,0.156,0.1577,0.1601,0.1624,0.1641,0.1668,0.1688,0.1732,0.1752,0.1766,0.1774,0.1835,0.1834,0.1806,0.1895,0.1857,0.1863,0.1899,0.1909,0.1918,0.1919,0.1788,0,0,0,0,0,0.154,0.1563,0.1584,0.1607,0.1623,0.1652,0.1671,0.1693,0.1725,0.1748,0.1777,0.1814,0.1849,0.1874,0.1895,0.1938,0.1945,0.1971,0.198,0.1988,0.1993,0.2047,0.2061,0.191,0.191,0.191,0,0,0.1543,0.1564,0.1577,0.1609,0.1634,0.1662,0.1669,0.1706,0.1741,0.1746,0.1817,0.1843,0.1867,0.1921,0.1949,0.1932,0.2035,0.1993,0.2,0.2,0.2053,0.2068,0.2081,0.1913,0.1913,0.1912,0,0,0.1553,0.1584,0.1605,0.1629,0.1671,0.1689,0.1707,0.1744,0.178,0.1834,0.1858,0.1913,0.1959,0.199,0.2009,0.2079,0.2077,0.2094,0.2144,0.2197,0.221,0.2221,0.2248,0.2261,0.2102,0.2103,0.2103,0,0.156,0.1589,0.1614,0.1643,0.167,0.1706,0.1735,0.1771,0.1824,0.1853,0.187,0.1967,0.1992,0.2059,0.2098,0.2099,0.2123,0.2099,0.2208,0.2219,0.223,0.2255,0.2268,0.2106,0.2106,0.2105,0.2105,0,0.1579,0.1614,0.1631,0.1682,0.1713,0.1745,0.179,0.1837,0.1886,0.1917,0.2001,0.2044,0.2102,0.2127,0.214,0.223,0.2221,0.2208,0.2177,0.2248,0.227,0.2283,0.2111,0.211,0.2109,0.2108,0,0,0.1557,0.163,0.1639,0.1664,0.1738,0.1753,0.1829,0.1886,0.1938,0.2003,0.2068,0.215,0.218,0.2206,0.2234,0.2291,0.2392,0.2296,0.2297,0.2316,0.2506,0.2342,0.234,0.2408,0.2411,0.2413,0.2491,0,0.1567,0.1613,0.1659,0.171,0.1732,0.1798,0.1857,0.1918,0.1989,0.206,0.2121,0.2196,0.2208,0.2259,0.2318,0.2381,0.2431,0.2371,0.244,0.2441,0.2281,0.235,0.2422,0.2501,0.2504,0.2506,0.2507,0,0.1565,0.1596,0.1643,0.1711,0.1731,0.1779,0.1876,0.1936,0.2044,0.2104,0.2192,0.2241,0.235,0.2344,0.248,0.2448,0.2486,0.2521,0.2524,0.2355,0.2301,0.2417,0.2531,0.2529,0.2527,0.2526,0.2524,0,0.1504,0.1581,0.1615,0.164,0.1728,0.1777,0.184,0.195,0.2013,0.2148,0.2211,0.2321,0.24,0.2476,0.2563,0.254,0.2692,0.2657,0.2533,0.2522,0.2617,0.2604,0.2737,0.2737,0.2736,0.2736,0.2736,0,0.1473,0.1501,0.1594,0.1606,0.1658,0.1743,0.1826,0.1909,0.2041,0.2114,0.2233,0.2306,0.2446,0.254,0.2592,0.2606,0.2717,0.255,0.2536,0.2641,0.263,0.2626,0.2612,0.2739,0.2738,0.2738,0.2737,0,0.1388,0.1456,0.149,0.1588,0.1627,0.1664,0.1811,0.1858,0.2013,0.212,0.2172,0.2334,0.2452,0.2557,0.2689,0.2627,0.2669,0.2641,0.2754,0.2745,0.245,0.2439,0.2492,0.2487,0.2483,0.2479,0.2476,0,0.1333,0.1344,0.1452,0.1468,0.1519,0.1602,0.165,0.1823,0.1897,0.2116,0.215,0.2315,0.2404,0.2453,0.2574,0.2636,0.2609,0.2596,0.2507,0.2446,0.2429,0.2424,0.2419,0.2469,0.2468,0.2467,0.2466,0,0.1214,0.1278,0.1315,0.1358,0.1411,0.146,0.1568,0.1616,0.1815,0.1979,0.2086,0.2153,0.2266,0.2356,0.2424,0.2464,0.2587,0.255,0.2558,0.2475,0.2419,0.2405,0.2405,0.2451,0.2453,0.2455,0.2456,0,0.1126,0.1128,0.1192,0.1229,0.1279,0.1293,0.1374,0.1476,0.1583,0.1857,0.1891,0.2071,0.2245,0.2268,0.234,0.236,0.2313,0.2227,0.225,0.2268,0.2159,0.2054,0.1969,0,0,0,0,0,0.1017,0.1018,0.1041,0.1074,0.1122,0.1163,0.1297,0.1394,0.1617,0.1641,0.1773,0.1878,0.1974,0.2073,0.2049,0.222,0.2305,0.2178,0.2212,0.2369,0.2386,0.2279,0,0,0,0,0,0,0.0943,0.0962,0.1,0.0948,0.0939,0.098,0.1059,0.1205,0.1259,0.1493,0.1566,0.1745,0.1875,0.1966,0.2005,0.2035,0.2013,0.231,0.2305,0.2359,0.2375,0.2389,0.2284,0,0,0,0,0]},{"header":{"parameterUnit":"m.s-1","parameterCategory":2,"la1":30.2991,"la2":30.254,"lo1":-89.0895,"lo2":-89.0444,"dy":0.0017,"dx":0.0017,"nx":28,"ny":28,"refTime":"2026-02-25T09:00:00:Z","depth":"4","parameterNumber":3,"parameterNumberName":"V-component_of_CURRENTS"},"data":[0,0,0,0,0,0,0,0,0,0,0,0,0,0,0,0,0,0,0,0,0,0,0,0,0,0,0,0,0,0,0,0,0,0,0,0,0,0,0,0,0,0,0,0,0,0,0,0,0,0,0,0,0,0,0,0,0,0,0.0086,0.0086,0,0.0069,0.0069,0.0068,0.0046,0.0046,0.0045,0.0045,0.002,0.002,0.0019,0,0,0,0,0,0,0,0,0,0,0,0,0,0.0064,0.0065,0.0086,0.0086,0.0086,0.0069,0.0069,0.0068,0.0046,0.0046,0.0045,0.0045,0.002,0.002,0.0019,0,0,0,0,0,0,0,0,0,0,0,0,0,0.0062,0.0065,0.0086,0.0073,0.0072,0.0069,0.0069,0.0068,0.0046,0.0046,0.0045,0.0045,0.002,0.002,0.0019,0.0025,0,0,0.0018,0.0017,0,0,0,0,0,0,0,0,0.0063,0.0063,0.0075,0.0074,0.0072,0.006,0.0052,0.0054,0.0046,0.0055,0.0045,0.0045,0.0033,0.0032,0.0029,0.0024,0.0023,0.0018,0.0017,0.0017,0.0017,0,0,0,0,0,0,0,0.0063,0.0064,0.0079,0.0075,0.0073,0.0056,0.0055,0.0052,0.0047,0.0055,0.0053,0.0052,0.0032,0.0029,0.0028,0.0023,0.0018,0.0017,0.0017,0.0017,0.0008,0.0008,0,0,0,0,0,0,0.0068,0.0064,0.0079,0.0078,0.0067,0.0057,0.0056,0.0064,0.0047,0.0044,0.0052,0.0051,0.0031,0.0029,0.0027,0.0034,0.0017,0.0017,0.0016,0.0008,0.0008,0.0008,0,0,0,0,0,0,0.0068,0.007,0.008,0.007,0.007,0.0058,0.0066,0.0064,0.0062,0.0045,0.0042,0.0054,0.003,0.0028,0.0025,0.0032,0.0016,0.0016,0.0008,0.0008,0.0008,0.0047,0,0,0,0,0,0,0.0068,0.0071,0.0077,0.0071,0.0071,0.0086,0.0067,0.0064,0.0062,0.006,0.0045,0.0042,0.003,0.0026,0.0025,0.0031,0.0015,0.0008,0.0008,0.0008,0.0045,0.0048,0.005,0,0,0,0,0,0.0067,0.0085,0.0078,0.0079,0.0081,0.0087,0.0086,0.0074,0.0063,0.0069,0.0054,0.0043,0.0026,0.0026,0.0024,0.0031,0.0008,0.0008,0.0008,0.0044,0.0047,0.005,0,0,0,0,0,0,0.008,0.0084,0.0076,0.0094,0.0092,0.0084,0.0088,0.0078,0.0072,0.0067,0.0048,0.0045,0.0043,0.0032,0.0032,0.0028,0.0014,0.0014,0.0041,0.0045,0.0047,0.0057,0.0015,0,0,0,0,0,0.0086,0.0098,0.0096,0.0108,0.011,0.0098,0.0097,0.0091,0.0084,0.008,0.0069,0.0054,0.0043,0.004,0.003,0.0033,0.0009,0.0034,0.0036,0.0039,0.0044,0.0015,0.0015,0.0009,0.0009,0.0009,0,0,0.0094,0.0097,0.0103,0.0111,0.0107,0.012,0.0097,0.0102,0.011,0.0079,0.0085,0.0065,0.0045,0.0044,0.0042,0.0037,0.0026,0.0039,0.0041,0.0046,0.0015,0.0015,0.0016,0.0009,0.0009,0.0009,0,0,0.0119,0.0119,0.0138,0.0142,0.0142,0.0137,0.0141,0.0136,0.013,0.0132,0.0107,0.0091,0.0082,0.0066,0.0057,0.0069,0.004,0.0065,0.009,0.0061,0.0061,0.0061,0.0025,0.0022,0.0068,0.0068,0.0068,0,0.0126,0.0154,0.0143,0.0163,0.0175,0.0149,0.0175,0.0165,0.0158,0.0158,0.0139,0.0112,0.0092,0.0086,0.0085,0.0076,0.0052,0.0081,0.0064,0.0064,0.0063,0.0027,0.0022,0.007,0.007,0.0069,0.0069,0,0.0167,0.0188,0.0201,0.0219,0.0227,0.0246,0.0236,0.0236,0.0221,0.0209,0.0196,0.0159,0.0146,0.0129,0.0111,0.0099,0.0081,0.007,0.0058,0.0066,0.0027,0.0022,0.0073,0.0072,0.0071,0.0071,0,0,0.0189,0.0224,0.0229,0.0257,0.0263,0.0281,0.0288,0.0296,0.031,0.0272,0.0281,0.0238,0.021,0.0196,0.0163,0.0129,0.0096,0.0101,0.0099,0.0069,0.0026,0.0001,-0.0007,0.0083,0.0082,0.0082,-0.0003,0,0.0225,0.0283,0.0286,0.0343,0.0376,0.0363,0.0379,0.0377,0.0363,0.0361,0.0299,0.0295,0.0238,0.0234,0.0187,0.0122,0.0085,0.0119,0.0019,0.0016,-0.0003,-0.0013,0.008,-0.0007,-0.0008,-0.0009,-0.0009,0,0.0266,0.0304,0.0367,0.0423,0.0436,0.0461,0.0493,0.0506,0.0482,0.0471,0.0436,0.0388,0.0329,0.0283,0.0162,0.0187,0.0113,0.0052,0.0047,0.001,-0.0017,-0.0016,-0.0019,-0.0018,-0.0018,-0.0017,-0.0016,0,0.0301,0.0364,0.0423,0.0442,0.0489,0.0517,0.0541,0.0541,0.0571,0.0546,0.0555,0.0465,0.0434,0.032,0.0178,0.0176,0.0037,0.0023,-0.0072,-0.0075,-0.0044,-0.0043,-0.0055,-0.0055,-0.0055,-0.0055,-0.0055,0,0.0344,0.0394,0.045,0.0485,0.0564,0.0575,0.0646,0.0652,0.0669,0.0708,0.062,0.0613,0.0443,0.0336,0.0201,0.0041,0.0054,-0.0071,-0.0097,-0.0027,-0.0023,-0.0048,-0.0046,-0.0058,-0.0057,-0.0057,-0.0056,0,0.0375,0.0406,0.0486,0.0555,0.0586,0.0645,0.0734,0.0786,0.0784,0.0829,0.0827,0.0729,0.058,0.0394,0.0204,0.0086,-0.007,-0.0125,-0.0044,-0.0064,-0.0168,-0.0164,-0.0236,-0.0237,-0.0239,-0.024,-0.0241,0,0.0399,0.0442,0.0544,0.0602,0.0641,0.0732,0.0801,0.0844,0.0902,0.0896,0.0921,0.0792,0.0696,0.0405,0.0203,-0.0067,-0.0104,-0.0182,-0.0177,-0.0168,-0.0187,-0.018,-0.0173,-0.0243,-0.0243,-0.0243,-0.0244,0,0.0449,0.048,0.0543,0.0664,0.0756,0.0865,0.0961,0.1009,0.105,0.1049,0.0997,0.0833,0.0658,0.0409,0.0193,0.0003,-0.0134,-0.0197,-0.0195,-0.0191,-0.0177,-0.0193,-0.0185,-0.0248,-0.0248,-0.0247,-0.0247,0,0.0484,0.0535,0.0618,0.0726,0.0845,0.0962,0.1009,0.1069,0.1118,0.11,0.1075,0.0872,0.0752,0.0446,0.0249,0.0048,-0.0001,-0.0056,-0.0062,-0.006,0.0006,0.005,0.0026,0,0,0,0,0,0.0518,0.0578,0.068,0.0803,0.0921,0.0994,0.1106,0.114,0.1169,0.1147,0.1113,0.0943,0.0631,0.0494,0.029,0.0218,-0.0037,-0.0027,-0.0104,-0.0273,-0.0268,-0.0224,0,0,0,0,0,0,0.0541,0.0631,0.0682,0.0848,0.0937,0.1083,0.1153,0.1174,0.1157,0.1138,0.0975,0.0889,0.0586,0.0743,0.0283,0.0221,0.0145,-0.0174,-0.0179,-0.0276,-0.0271,-0.0267,-0.022,0,0,0,0,0]}]]